Kosmos-2187

operational
NORAD ID: 21976 Int'l Des: 1992-030 Owner: VVSR Country: RU
LEOCIRCULAR

About Kosmos-2187

Description loading...

Live Position

Loading 3D Globe...

Upcoming Passes

Altitude History

Altitude vs Time

uPlot chart will show altitude changes over time

Two-Line Element Set

1 21976U 92030A 26062.48425036 -.00000011 00000-0 33444-4 0 9992
2 21976 73.9997 251.6957 0050095 141.9433 244.1561 12.55735356546976
Epoch: Mar 3, 2026 • Age: 38 hours

Current Status

Altitude 1480.0 km
Velocity 7.11 km/s
Sub-Earth Point -11.94°S, 128.4°W
Launch Date Jun 3, 1992
Age 33.7 years
Type other

Technical Details

Classification Payload
Mass 60.00 kg
Dry Mass 60.00 kg
Total Mass 60.00 kg
Length 0.80 m
Diameter 0.80 m
Span 0.80 m
Shape Poly
Manufacturer NPOPM
Bus Type Strela-1 11F625
Phase Status In Orbit
Owner/State VVSR/RU

Large Constellations

Loading constellations...